User: anonymous   Login
Location: Unspecified
(0.0000°N, 0.0000°E)
Time: 15:19:12
(UTC+00:00)
Language:

FORMOSAT 3A - Orbit

View from above orbital plane
View from above orbital plane
View from above satellite
View from above satellite

Ground track
Ground track

The orbit data is extracted from the following two-line orbital elements,

1 29047U 06011A   18232.48717338 -.00000042  00000-0 -34587-6 0  9998
2 29047  71.9795  31.1700 0049201 132.9320 227.5961 14.28647750646080
Epoch (UTC): 20 August 2018 11:41:31
Eccentricity: 0.0049201
inclination: 71.9795°
perigee height: 761 km
apogee height: 831 km
right ascension of ascending node: 31.1700°
argument of perigee: 132.9320°
revolutions per day: 14.28647750
mean anomaly at epoch: 227.5961°
orbit number at epoch: 64608

The dashed part of the orbit path shows where the satellite is in the earth's shadow,  

DLR